Regional Weather Roundup
Issued by NWS Jackson, KY

Home | Current Version | Previous Version | Text Only | Print | Product List | Glossary Off
Versions: 1 2 3 4 5 6 7 8 9 10 11 12 13 14 15 16 17 18 19 20 21 22 23 24 25 26 27 28 29 30 31 32 33 34 35 36 37 38 39 40 41 42 43 44 45 46 47 48 49 50

323
ASUS43 KJKL 280710
RWRJKL

EAST KENTUCKY HOURLY WEATHER ROUNDUP
NATIONAL WEATHER SERVICE JACKSON KY
300 AM EDT THU JUL 28 2016

NOTE: "FAIR" INDICATES FEW OR NO CLOUDS BELOW 12,000 FEET WITH
NO SIGNIFICANT WEATHER AND/OR OBSTRUCTIONS TO VISIBILITY.

* THESE REPORTS ARE NOT UNDER NWS QUALITY CONTROL AND MAY NOT
  REPORT WEATHER SUCH AS PRECIPITATION AND FOG.

KYZ079-080-083-085-087-088-110-112-115-119-120-280800
...EASTERN KENTUCKY...

CITY           SKY/WX    TMP DP  RH WIND       PRES   REMARKS
JACKSON        CLOUDY    71  69  93 CALM      29.98R FOG
LONDON         CLOUDY    70  67  90 S3        29.98F
SOMERSET*      CLOUDY    70  70 100 SE3       29.97F
MONTICELLO*    CLOUDY   N/A N/A N/A NE6       29.98F
WILLIAMSBURG*  CLOUDY    70  70 100 SE6       29.99F
MIDDLESBORO*   CLOUDY    71  71 100 CALM      30.02S
HARLAN APT*      N/A     68  66  94 CALM      30.04S
PIKE CO APT*   TSTM      72  72 100 SE6       29.99F
BIG SANDY APT* CLOUDY    74  69  86 CALM      29.97F
MOREHEAD APT*  CLOUDY    73  70  88 S3        29.98F
ASHLAND*       CLOUDY    75  72  88 SE5       29.93S
$$

KYZ035-036-041-042-044-050-067-078-099-280800
...CENTRAL KENTUCKY...

CITY           SKY/WX    TMP DP  RH WIND       PRES   REMARKS
MT STERLING*   CLOUDY    72  70  94 CALM      29.96F
FLEMING/MASON* RAIN      74  73  97 SW7       29.97S
DANVILLE*      CLOUDY    72  72 100 CALM      29.96F
LEXINGTON      CLOUDY    76  71  85 SW5       29.95F
FRANKFORT      LGT RAIN  74  70  87 CALM      29.93S FOG
LOUISVILLE     TSTM      77  74  90 CALM      29.91F FOG
LEBANON*       RAIN      73  73 100 CALM      29.96R
GLASGOW*       CLOUDY    74  74 100 N5        29.94F
BOWLING GREEN  LGT RAIN  75  73  93 NE3       29.93F
$$

KYZ091>093-OHZ055-061-077-WVZ005-015-034-035-042-280800
...SOUTHERN OHIO/WEST VIRGINIA...

CITY           SKY/WX    TMP DP  RH WIND       PRES   REMARKS
COVINGTON      CLOUDY    77  75  93 CALM      29.93F
COLUMBUS       CLOUDY    77  65  66 NE3       29.92S
DAYTON         CLOUDY    76  63  64 NW3       29.94F
WILMINGTON     MOCLDY    75  70  84 CALM      29.94F
HUNTINGTON     LGT RAIN  75  73  93 S3        29.95S
CHARLESTON     MOCLDY    76  73  91 CALM      29.97F THUNDER
PINEVILLE*     CLOUDY    73  69  89 MISG      30.09R FOG
BECKLEY        MOCLDY    69  67  93 CALM      30.06F
BLUEFIELD        N/A     70  67  90 CALM      30.09F
LOGAN CO APT*  TSTM      72  70  94 SW13G25   30.02R VSB<1/4
$$

VAZ002-007-008-TNZ017-027-036-066-071-280800
...SOUTHWEST VIRGINIA/EAST TENNESSEE...

CITY           SKY/WX    TMP DP  RH WIND       PRES   REMARKS
WISE*            N/A     68  66  94 W8        30.10F
JONESVILLE*      N/A     72  70  94 CALM      30.05F
ABINGDON*      LGT RAIN  74  73  98 CALM      30.08F
BRISTOL        CLOUDY    71  68  90 CALM      30.04F
MORRISTOWN*    CLOUDY    77  73  88 E6        30.02F
SEVIERVILLE*   SUNNY     81  66  61 CALM      30.00S
KNOXVILLE      CLOUDY    79  69  71 SW12      29.99F
OAK RIDGE      PTCLDY    81  68  64 VRB5      30.00F
CROSSVILLE     MOCLDY    73  69  87 VRB3      30.05S
NASHVILLE      RAIN      79  72  79 SW6       29.95S
$$

...KEY TO REMARKS...
VSB - VISIBILITY IN MILES
WCI - WIND CHILL INDEX
HX  - HEAT INDEX

$$




USA.gov is the U.S. government's official web portal to all federal, state and local government web resources and services.